| time (UTC) | temp C | wind direction | speed KPH | gust KPH | rain 1hr cm | rain 24hr cm | rain mn cm | humidity % | barometer mb |
| 20260505165222 | 21 | 228 | 6.4 | 6.4 | 0.00 | 0.00 | 0.00 | 53 | 1015.2 |
| 20260505164718 | 21 | 215 | 9.7 | 11.3 | 0.00 | 0.00 | 0.00 | 52 | 1015.3 |
| 20260505164215 | 21 | 218 | 9.7 | 11.3 | 0.00 | 0.00 | 0.00 | 53 | 1015.3 |
| 20260505163714 | 21 | 203 | 6.4 | 9.7 | 0.00 | 0.00 | 0.00 | 55 | 1015.3 |
| 20260505163212 | 21 | 279 | 6.4 | 11.3 | 0.00 | 0.00 | 0.00 | 54 | 1015.5 |
| 20260505162709 | 21 | 196 | 4.8 | 6.4 | 0.00 | 0.00 | 0.00 | 53 | 1015.6 |
| 20260505162206 | 21 | 214 | 6.4 | 6.4 | 0.00 | 0.00 | 0.00 | 56 | 1015.5 |
| 20260505161703 | 20 | 207 | 8.0 | 9.7 | 0.00 | 0.00 | 0.00 | 55 | 1015.7 |
| 20260505161200 | 20 | 232 | 12.9 | 14.5 | 0.00 | 0.00 | 0.00 | 54 | 1015.7 |
| 20260505160658 | 20 | 204 | 4.8 | 4.8 | 0.00 | 0.00 | 0.00 | 57 | 1015.7 |
| 20260505160155 | 20 | 229 | 6.4 | 6.4 | 0.00 | 0.00 | 0.00 | 56 | 1015.8 |
| 20260505153134 | 20 | 239 | 12.9 | 14.5 | 0.00 | 0.00 | 0.00 | 54 | 1015.4 |
| 20260505152631 | 20 | 229 | 6.4 | 6.4 | 0.00 | 0.00 | 0.00 | 54 | 1015.4 |
| 20260505152127 | 20 | 235 | 3.2 | 3.2 | 0.00 | 0.00 | 0.00 | 55 | 1015.3 |
| 20260505151622 | 20 | 242 | 6.4 | 6.4 | 0.00 | 0.00 | 0.00 | 54 | 1015.4 |
| 20260505151120 | 20 | 232 | 6.4 | 6.4 | 0.00 | 0.00 | 0.00 | 54 | 1015.5 |
| 20260505150616 | 20 | 186 | 3.2 | 3.2 | 0.00 | 0.00 | 0.00 | 54 | 1015.4 |
| 20260505150113 | 20 | 229 | 6.4 | 6.4 | 0.00 | 0.00 | 0.00 | 55 | 1015.4 |
| 20260505140541 | 20 | 236 | 9.7 | 12.9 | 0.00 | 0.00 | 0.00 | 53 | 1014.7 |
| 20260505124955 | 17 | 186 | 8.0 | 12.9 | 0.00 | 0.00 | 0.00 | 55 | 1014.9 |
| 20260505124451 | 17 | 214 | 11.3 | 14.5 | 0.00 | 0.00 | 0.00 | 55 | 1015.1 |
| 20260505123948 | 17 | 216 | 6.4 | 6.4 | 0.00 | 0.00 | 0.00 | 57 | 1014.7 |
| 20260505123444 | 16 | 197 | 4.8 | 6.4 | 0.00 | 0.00 | 0.00 | 60 | 1014.8 |
| 20260505122940 | 16 | 205 | 3.2 | 4.8 | 0.00 | 0.00 | 0.00 | 63 | 1014.9 |
| 20260505122438 | 15 | 194 | 3.2 | 3.2 | 0.00 | 0.00 | 0.00 | 67 | 1014.6 |
| 20260505121934 | 15 | 176 | 1.6 | 1.6 | 0.00 | 0.00 | 0.00 | 69 | 1014.5 |
| 20260505121432 | 15 | 186 | 1.6 | 1.6 | 0.00 | 0.00 | 0.00 | 69 | 1014.4 |
| 20260505120927 | 15 | 178 | 0.0 | 0.0 | 0.00 | 0.00 | 0.00 | 72 | 1014.6 |
| 20260505120424 | 14 | 175 | 0.0 | 0.0 | 0.00 | 0.00 | 0.00 | 73 | 1014.4 |
| 20260505115923 | 14 | 172 | 1.6 | 1.6 | 0.00 | 0.00 | 0.00 | 73 | 1014.5 |
| 20260505115420 | 14 | 173 | 0.0 | 0.0 | 0.00 | 0.00 | 0.00 | 73 | 1014.5 |
| 20260505114918 | 14 | 173 | 0.0 | 0.0 | 0.00 | 0.00 | 0.00 | 73 | 1014.1 |
| 20260505114414 | 13 | 182 | 0.0 | 0.0 | 0.00 | 0.00 | 0.00 | 72 | 1014.3 |
| 20260505113910 | 13 | 181 | 0.0 | 0.0 | 0.00 | 0.00 | 0.00 | 72 | 1014.4 |
| 20260505113407 | 13 | 181 | 0.0 | 0.0 | 0.00 | 0.00 | 0.00 | 72 | 1014.2 |
| 20260505112903 | 13 | 181 | 0.0 | 0.0 | 0.00 | 0.00 | 0.00 | 71 | 1014.2 |
| 20260505112400 | 13 | 193 | 0.0 | 0.0 | 0.00 | 0.00 | 0.00 | 72 | 1014.2 |
| 20260505111856 | 13 | 194 | 0.0 | 0.0 | 0.00 | 0.00 | 0.00 | 71 | 1014.2 |
| 20260505111351 | 13 | 194 | 0.0 | 0.0 | 0.00 | 0.00 | 0.00 | 72 | 1014.0 |
| 20260505110847 | 13 | 193 | 0.0 | 0.0 | 0.00 | 0.00 | 0.00 | 72 | 1014.1 |
| 20260505110345 | 13 | 193 | 0.0 | 0.0 | 0.00 | 0.00 | 0.00 | 70 | 1013.8 |
| 20260505101815 | 14 | 197 | 0.0 | 0.0 | 0.00 | 0.00 | 0.00 | 64 | 1013.7 |
| 20260505101310 | 14 | 196 | 1.6 | 1.6 | 0.00 | 0.00 | 0.00 | 65 | 1013.5 |
| 20260505100806 | 14 | 194 | 0.0 | 0.0 | 0.00 | 0.00 | 0.00 | 65 | 1013.6 |
| 20260505100303 | 15 | 194 | 0.0 | 0.0 | 0.00 | 0.00 | 0.00 | 63 | 1013.4 |
| 20260505095759 | 15 | 194 | 0.0 | 0.0 | 0.00 | 0.00 | 0.00 | 63 | 1013.5 |
| 20260505095257 | 15 | 176 | 0.0 | 1.6 | 0.00 | 0.00 | 0.00 | 62 | 1013.6 |
| 20260505094752 | 15 | 200 | 0.0 | 0.0 | 0.00 | 0.00 | 0.00 | 62 | 1013.4 |
| 20260505094249 | 15 | 200 | 0.0 | 0.0 | 0.00 | 0.00 | 0.00 | 61 | 1013.6 |
| 20260505093745 | 15 | 191 | 1.6 | 1.6 | 0.00 | 0.00 | 0.00 | 62 | 1013.5 |
| 20260505093243 | 15 | 190 | 0.0 | 0.0 | 0.00 | 0.00 | 0.00 | 61 | 1013.6 |
| 20260505092739 | 15 | 191 | 1.6 | 1.6 | 0.00 | 0.00 | 0.00 | 60 | 1013.6 |
| 20260505092238 | 15 | 174 | 1.6 | 1.6 | 0.00 | 0.00 | 0.00 | 59 | 1013.6 |
| 20260505091735 | 16 | 183 | 0.0 | 0.0 | 0.00 | 0.00 | 0.00 | 59 | 1013.6 |
| 20260505091233 | 16 | 191 | 0.0 | 0.0 | 0.00 | 0.00 | 0.00 | 58 | 1013.7 |
| 20260505090730 | 16 | 201 | 3.2 | 3.2 | 0.00 | 0.00 | 0.00 | 56 | 1013.6 |
| 20260505090229 | 16 | 206 | 3.2 | 3.2 | 0.00 | 0.00 | 0.00 | 57 | 1013.8 |
| 20260505085725 | 16 | 189 | 1.6 | 1.6 | 0.00 | 0.00 | 0.00 | 57 | 1013.8 |
| 20260505085224 | 17 | 172 | 3.2 | 3.2 | 0.00 | 0.00 | 0.00 | 57 | 1013.9 |
| 20260505084721 | 17 | 178 | 3.2 | 3.2 | 0.00 | 0.00 | 0.00 | 56 | 1013.7 |
| 20260505084220 | 17 | 213 | 3.2 | 3.2 | 0.00 | 0.00 | 0.00 | 55 | 1013.9 |
| 20260505083716 | 17 | 205 | 1.6 | 1.6 | 0.00 | 0.00 | 0.00 | 55 | 1013.7 |
| 20260505083213 | 17 | 207 | 4.8 | 4.8 | 0.00 | 0.00 | 0.00 | 54 | 1013.7 |
| 20260505082709 | 17 | 202 | 8.0 | 9.7 | 0.00 | 0.00 | 0.00 | 54 | 1013.8 |
| 20260505082206 | 17 | 224 | 6.4 | 6.4 | 0.00 | 0.00 | 0.00 | 54 | 1013.7 |
| 20260505081702 | 17 | 168 | 8.0 | 12.9 | 0.00 | 0.00 | 0.00 | 53 | 1013.7 |
| 20260505081200 | 17 | 211 | 3.2 | 6.4 | 0.00 | 0.00 | 0.00 | 54 | 1013.6 |
| 20260505080656 | 17 | 208 | 4.8 | 4.8 | 0.00 | 0.00 | 0.00 | 54 | 1013.6 |
| 20260505080152 | 17 | 220 | 4.8 | 6.4 | 0.00 | 0.00 | 0.00 | 53 | 1013.5 |
| 20260505075648 | 17 | 233 | 6.4 | 6.4 | 0.00 | 0.00 | 0.00 | 53 | 1013.6 |
| 20260505075145 | 17 | 210 | 3.2 | 3.2 | 0.00 | 0.00 | 0.00 | 53 | 1013.4 |
| 20260505074642 | 18 | 153 | 4.8 | 4.8 | 0.00 | 0.00 | 0.00 | 52 | 1013.3 |
| 20260505074139 | 18 | 208 | 4.8 | 4.8 | 0.00 | 0.00 | 0.00 | 52 | 1013.2 |
| 20260505073637 | 18 | 211 | 12.9 | 12.9 | 0.00 | 0.00 | 0.00 | 52 | 1013.2 |
| 20260505073135 | 18 | 210 | 4.8 | 4.8 | 0.00 | 0.00 | 0.00 | 51 | 1013.5 |
| 20260505072630 | 18 | 185 | 6.4 | 12.9 | 0.00 | 0.00 | 0.00 | 51 | 1013.5 |
| 20260505072127 | 18 | 192 | 8.0 | 11.3 | 0.00 | 0.00 | 0.00 | 51 | 1013.2 |
| 20260505071623 | 18 | 225 | 9.7 | 11.3 | 0.00 | 0.00 | 0.00 | 51 | 1013.2 |
| 20260505071121 | 18 | 224 | 8.0 | 11.3 | 0.00 | 0.00 | 0.00 | 50 | 1012.8 |
| 20260505070618 | 18 | 210 | 3.2 | 3.2 | 0.00 | 0.00 | 0.00 | 50 | 1013.0 |
| 20260505070114 | 18 | 211 | 9.7 | 11.3 | 0.00 | 0.00 | 0.00 | 50 | 1013.1 |
| 20260505065610 | 18 | 231 | 9.7 | 12.9 | 0.00 | 0.00 | 0.00 | 51 | 1013.0 |
| 20260505065107 | 18 | 191 | 11.3 | 14.5 | 0.00 | 0.00 | 0.00 | 51 | 1013.2 |
| 20260505064603 | 18 | 182 | 4.8 | 4.8 | 0.00 | 0.00 | 0.00 | 51 | 1013.2 |
| 20260505064102 | 18 | 194 | 8.0 | 9.7 | 0.00 | 0.00 | 0.00 | 50 | 1013.2 |
| 20260505063559 | 18 | 197 | 8.0 | 9.7 | 0.00 | 0.00 | 0.00 | 51 | 1013.3 |
| 20260505063055 | 18 | 223 | 8.0 | 14.5 | 0.00 | 0.00 | 0.00 | 50 | 1013.5 |
| 20260505062551 | 18 | 218 | 9.7 | 12.9 | 0.00 | 0.00 | 0.00 | 50 | 1013.5 |
| 20260505062049 | 18 | 223 | 9.7 | 12.9 | 0.00 | 0.00 | 0.00 | 50 | 1013.5 |
| 20260505061546 | 18 | 224 | 4.8 | 6.4 | 0.00 | 0.00 | 0.00 | 50 | 1013.5 |
| 20260505061044 | 18 | 213 | 6.4 | 6.4 | 0.00 | 0.00 | 0.00 | 50 | 1013.6 |
| 20260505060541 | 18 | 218 | 6.4 | 9.7 | 0.00 | 0.00 | 0.00 | 50 | 1013.5 |
| 20260505060037 | 18 | 231 | 6.4 | 6.4 | 0.00 | 0.00 | 0.00 | 49 | 1013.8 |
| 20260505055532 | 18 | 189 | 4.8 | 6.4 | 0.00 | 0.00 | 0.00 | 49 | 1013.8 |
| 20260505055030 | 18 | 208 | 9.7 | 9.7 | 0.00 | 0.00 | 0.00 | 49 | 1013.7 |
| 20260505054527 | 18 | 259 | 6.4 | 9.7 | 0.00 | 0.00 | 0.00 | 49 | 1013.9 |
| 20260505054025 | 18 | 209 | 11.3 | 12.9 | 0.00 | 0.00 | 0.00 | 49 | 1013.8 |
| 20260505053522 | 18 | 226 | 6.4 | 6.4 | 0.00 | 0.00 | 0.00 | 49 | 1013.9 |
| 20260505053019 | 18 | 207 | 3.2 | 3.2 | 0.00 | 0.00 | 0.00 | 50 | 1013.9 |
| 20260505052516 | 18 | 214 | 11.3 | 12.9 | 0.00 | 0.00 | 0.00 | 48 | 1013.7 |
| 20260505052013 | 18 | 211 | 6.4 | 6.4 | 0.00 | 0.00 | 0.00 | 49 | 1013.7 |
| 20260505051510 | 18 | 186 | 3.2 | 3.2 | 0.00 | 0.00 | 0.00 | 50 | 1013.8 |
| 20260505051008 | 18 | 183 | 3.2 | 3.2 | 0.00 | 0.00 | 0.00 | 49 | 1013.7 |
| 20260505050506 | 19 | 199 | 1.6 | 3.2 | 0.00 | 0.00 | 0.00 | 49 | 1013.7 |
| 20260505041433 | 19 | 212 | 8.0 | 9.7 | 0.00 | 0.00 | 0.00 | 48 | 1013.1 |
| 20260505040931 | 19 | 200 | 3.2 | 3.2 | 0.00 | 0.00 | 0.00 | 49 | 1013.3 |
| 20260505040428 | 20 | 203 | 3.2 | 4.8 | 0.00 | 0.00 | 0.00 | 48 | 1013.1 |
| 20260505035925 | 20 | 198 | 9.7 | 12.9 | 0.00 | 0.00 | 0.00 | 48 | 1013.1 |
| 20260505035421 | 20 | 228 | 8.0 | 9.7 | 0.00 | 0.00 | 0.00 | 48 | 1013.0 |
| 20260505034918 | 20 | 236 | 6.4 | 6.4 | 0.00 | 0.00 | 0.00 | 49 | 1013.1 |
| 20260505034414 | 20 | 236 | 8.0 | 11.3 | 0.00 | 0.00 | 0.00 | 49 | 1013.1 |
| 20260505033912 | 20 | 202 | 4.8 | 6.4 | 0.00 | 0.00 | 0.00 | 49 | 1013.1 |
| 20260505033408 | 20 | 212 | 8.0 | 9.7 | 0.00 | 0.00 | 0.00 | 49 | 1013.1 |
| 20260505032907 | 20 | 216 | 6.4 | 4.8 | 0.00 | 0.00 | 0.00 | 50 | 1013.1 |
| 20260505032403 | 20 | 212 | 6.4 | 6.4 | 0.00 | 0.00 | 0.00 | 50 | 1013.3 |
| 20260505031900 | 20 | 145 | 3.2 | 4.8 | 0.00 | 0.00 | 0.00 | 50 | 1013.2 |
| 20260505031357 | 20 | 203 | 8.0 | 9.7 | 0.00 | 0.00 | 0.00 | 50 | 1013.4 |
| 20260505030854 | 20 | 231 | 8.0 | 9.7 | 0.00 | 0.00 | 0.00 | 50 | 1013.4 |
| 20260505030349 | 20 | 198 | 1.6 | 3.2 | 0.00 | 0.00 | 0.00 | 50 | 1013.4 |
| 20260505025845 | 20 | 215 | 4.8 | 6.4 | 0.00 | 0.00 | 0.00 | 49 | 1013.2 |
| 20260505025343 | 20 | 225 | 6.4 | 9.7 | 0.00 | 0.00 | 0.00 | 49 | 1013.2 |
| 20260505024842 | 20 | 211 | 6.4 | 9.7 | 0.00 | 0.00 | 0.00 | 48 | 1013.2 |
| 20260505024339 | 20 | 203 | 1.6 | 1.6 | 0.00 | 0.00 | 0.00 | 47 | 1013.1 |
| 20260505023836 | 20 | 219 | 6.4 | 9.7 | 0.00 | 0.00 | 0.00 | 47 | 1013.3 |
| 20260505023333 | 20 | 223 | 4.8 | 6.4 | 0.00 | 0.00 | 0.00 | 47 | 1013.0 |
| 20260505022830 | 21 | 209 | 6.4 | 9.7 | 0.00 | 0.00 | 0.00 | 46 | 1013.1 |
| 20260505022327 | 21 | 213 | 11.3 | 12.9 | 0.00 | 0.00 | 0.00 | 46 | 1013.0 |
| 20260505021824 | 21 | 189 | 9.7 | 9.7 | 0.00 | 0.00 | 0.00 | 45 | 1013.0 |
| 20260505021321 | 21 | 217 | 6.4 | 9.7 | 0.00 | 0.00 | 0.00 | 46 | 1012.8 |
| 20260505020816 | 21 | 202 | 6.4 | 6.4 | 0.00 | 0.00 | 0.00 | 44 | 1013.1 |
| 20260505020312 | 21 | 190 | 8.0 | 9.7 | 0.00 | 0.00 | 0.00 | 45 | 1012.8 |
| 20260505015809 | 21 | 218 | 8.0 | 9.7 | 0.00 | 0.00 | 0.00 | 46 | 1013.0 |
| 20260505015306 | 21 | 171 | 6.4 | 6.4 | 0.00 | 0.00 | 0.00 | 46 | 1013.1 |
| 20260505014804 | 21 | 196 | 4.8 | 4.8 | 0.00 | 0.00 | 0.00 | 46 | 1012.7 |
| 20260505014301 | 21 | 197 | 6.4 | 6.4 | 0.00 | 0.00 | 0.00 | 46 | 1013.0 |
| 20260505013757 | 21 | 224 | 8.0 | 9.7 | 0.00 | 0.00 | 0.00 | 46 | 1013.0 |
| 20260505013254 | 21 | 207 | 8.0 | 9.7 | 0.00 | 0.00 | 0.00 | 46 | 1013.1 |
| 20260505012753 | 21 | 197 | 4.8 | 4.8 | 0.00 | 0.00 | 0.00 | 46 | 1012.7 |
| 20260505012250 | 21 | 213 | 11.3 | 12.9 | 0.00 | 0.00 | 0.00 | 46 | 1012.8 |
| 20260505011745 | 21 | 203 | 6.4 | 6.4 | 0.00 | 0.00 | 0.00 | 46 | 1013.0 |
| 20260505011242 | 21 | 178 | 8.0 | 9.7 | 0.00 | 0.00 | 0.00 | 47 | 1012.8 |
| 20260505010738 | 21 | 202 | 4.8 | 4.8 | 0.00 | 0.00 | 0.00 | 46 | 1012.7 |
| 20260505010235 | 21 | 205 | 8.0 | 9.7 | 0.00 | 0.00 | 0.00 | 46 | 1012.8 |
| 20260505005731 | 21 | 214 | 4.8 | 6.4 | 0.00 | 0.00 | 0.00 | 45 | 1013.0 |
| 20260505005228 | 21 | 214 | 4.8 | 4.8 | 0.00 | 0.00 | 0.00 | 45 | 1013.1 |
| 20260505004725 | 21 | 212 | 9.7 | 11.3 | 0.00 | 0.00 | 0.00 | 45 | 1012.8 |
| 20260505004222 | 21 | 210 | 4.8 | 4.8 | 0.00 | 0.00 | 0.00 | 45 | 1012.7 |
| 20260505003719 | 22 | 236 | 6.4 | 9.7 | 0.00 | 0.00 | 0.00 | 44 | 1012.8 |
| 20260505003217 | 22 | 221 | 9.7 | 12.9 | 0.00 | 0.00 | 0.00 | 44 | 1012.7 |
| 20260505002713 | 22 | 216 | 8.0 | 11.3 | 0.00 | 0.00 | 0.00 | 44 | 1013.0 |
| 20260505002210 | 22 | 230 | 9.7 | 11.3 | 0.00 | 0.00 | 0.00 | 43 | 1012.8 |
| 20260505001708 | 22 | 229 | 6.4 | 9.7 | 0.00 | 0.00 | 0.00 | 44 | 1012.8 |
| 20260505001205 | 22 | 234 | 9.7 | 12.9 | 0.00 | 0.00 | 0.00 | 43 | 1012.8 |
| 20260505000702 | 22 | 199 | 4.8 | 6.4 | 0.00 | 0.00 | 0.00 | 44 | 1013.0 |
| 20260505000200 | 22 | 205 | 6.4 | 6.4 | 0.00 | 0.00 | 0.00 | 43 | 1013.0 |
| 20260504235656 | 22 | 209 | 6.4 | 11.3 | 0.00 | 0.00 | 0.00 | 43 | 1012.8 |
| 20260504235152 | 23 | 214 | 6.4 | 9.7 | 0.00 | 0.00 | 0.00 | 42 | 1013.0 |
| 20260504234650 | 23 | 207 | 6.4 | 9.7 | 0.00 | 0.00 | 0.00 | 42 | 1013.1 |
| 20260504234147 | 23 | 216 | 8.0 | 9.7 | 0.00 | 0.00 | 0.00 | 41 | 1013.0 |
| 20260504233643 | 23 | 240 | 9.7 | 14.5 | 0.00 | 0.00 | 0.00 | 41 | 1013.0 |
| 20260504233139 | 23 | 223 | 9.7 | 11.3 | 0.00 | 0.00 | 0.00 | 40 | 1012.7 |
| 20260504232637 | 23 | 217 | 9.7 | 11.3 | 0.00 | 0.00 | 0.00 | 40 | 1012.8 |
| 20260504232133 | 23 | 241 | 14.5 | 14.5 | 0.00 | 0.00 | 0.00 | 40 | 1013.0 |
| 20260504231630 | 23 | 212 | 6.4 | 9.7 | 0.00 | 0.00 | 0.00 | 40 | 1013.0 |
| 20260504231126 | 23 | 228 | 9.7 | 11.3 | 0.00 | 0.00 | 0.00 | 40 | 1013.0 |
| 20260504230622 | 23 | 164 | 4.8 | 4.8 | 0.00 | 0.00 | 0.00 | 39 | 1012.8 |
| 20260504230122 | 24 | 231 | 11.3 | 12.9 | 0.00 | 0.00 | 0.00 | 39 | 1012.8 |
| 20260504225619 | 24 | 167 | 11.3 | 14.5 | 0.00 | 0.00 | 0.00 | 39 | 1012.8 |
| 20260504225115 | 24 | 207 | 9.7 | 12.9 | 0.00 | 0.00 | 0.00 | 38 | 1012.8 |
| 20260504224612 | 24 | 214 | 14.5 | 16.1 | 0.00 | 0.00 | 0.00 | 39 | 1012.8 |
| 20260504224109 | 24 | 105 | 6.4 | 6.4 | 0.00 | 0.00 | 0.00 | 39 | 1012.8 |
| 20260504223606 | 24 | 214 | 17.7 | 20.9 | 0.00 | 0.00 | 0.00 | 39 | 1013.2 |
| 20260504223102 | 25 | 201 | 12.9 | 14.5 | 0.00 | 0.00 | 0.00 | 38 | 1012.8 |
| 20260504222559 | 24 | 203 | 4.8 | 4.8 | 0.00 | 0.00 | 0.00 | 38 | 1013.1 |
| 20260504222056 | 25 | 235 | 9.7 | 17.7 | 0.00 | 0.00 | 0.00 | 38 | 1013.1 |
| 20260504221553 | 25 | 248 | 6.4 | 6.4 | 0.00 | 0.00 | 0.00 | 37 | 1013.0 |
| 20260504221050 | 25 | 251 | 9.7 | 11.3 | 0.00 | 0.00 | 0.00 | 36 | 1013.0 |
| 20260504220546 | 25 | 215 | 6.4 | 11.3 | 0.00 | 0.00 | 0.00 | 36 | 1012.8 |
| 20260504220044 | 25 | 232 | 11.3 | 14.5 | 0.00 | 0.00 | 0.00 | 35 | 1013.0 |
| 20260504215540 | 25 | 195 | 11.3 | 12.9 | 0.00 | 0.00 | 0.00 | 36 | 1012.7 |
| 20260504215038 | 25 | 220 | 8.0 | 11.3 | 0.00 | 0.00 | 0.00 | 38 | 1012.8 |
| 20260504214533 | 25 | 226 | 4.8 | 6.4 | 0.00 | 0.00 | 0.00 | 38 | 1012.7 |
| 20260504214030 | 25 | 218 | 9.7 | 11.3 | 0.00 | 0.00 | 0.00 | 38 | 1012.6 |
| 20260504213526 | 25 | 200 | 8.0 | 9.7 | 0.00 | 0.00 | 0.00 | 40 | 1012.4 |
| 20260504213024 | 25 | 266 | 6.4 | 11.3 | 0.00 | 0.00 | 0.00 | 38 | 1012.5 |
| 20260504212519 | 25 | 204 | 9.7 | 12.9 | 0.00 | 0.00 | 0.00 | 38 | 1012.6 |
| 20260504212017 | 25 | 213 | 8.0 | 9.7 | 0.00 | 0.00 | 0.00 | 38 | 1012.7 |
| 20260504211514 | 25 | 239 | 4.8 | 9.7 | 0.00 | 0.00 | 0.00 | 39 | 1013.1 |
| 20260504211011 | 26 | 244 | 9.7 | 12.9 | 0.00 | 0.00 | 0.00 | 38 | 1012.8 |
| 20260504210508 | 25 | 167 | 8.0 | 9.7 | 0.00 | 0.00 | 0.00 | 38 | 1013.0 |
| 20260504210005 | 25 | 233 | 14.5 | 16.1 | 0.00 | 0.00 | 0.00 | 38 | 1012.8 |
| 20260504205502 | 25 | 228 | 16.1 | 22.5 | 0.00 | 0.00 | 0.00 | 39 | 1013.0 |
| 20260504205000 | 25 | 211 | 8.0 | 9.7 | 0.00 | 0.00 | 0.00 | 39 | 1013.2 |
| 20260504204458 | 25 | 259 | 12.9 | 14.5 | 0.00 | 0.00 | 0.00 | 38 | 1013.1 |
| 20260504203957 | 25 | 230 | 6.4 | 9.7 | 0.00 | 0.00 | 0.00 | 40 | 1013.2 |
| 20260504203454 | 25 | 179 | 6.4 | 9.7 | 0.00 | 0.00 | 0.00 | 40 | 1013.3 |
| 20260504202950 | 25 | 222 | 9.7 | 17.7 | 0.00 | 0.00 | 0.00 | 39 | 1013.2 |
| 20260504202447 | 26 | 227 | 11.3 | 12.9 | 0.00 | 0.00 | 0.00 | 40 | 1013.2 |
| 20260504201944 | 25 | 211 | 9.7 | 12.9 | 0.00 | 0.00 | 0.00 | 41 | 1013.3 |
| 20260504201441 | 25 | 251 | 12.9 | 20.9 | 0.00 | 0.00 | 0.00 | 40 | 1013.7 |
| 20260504200939 | 25 | 206 | 9.7 | 12.9 | 0.00 | 0.00 | 0.00 | 40 | 1013.7 |
| 20260504200435 | 25 | 222 | 9.7 | 12.9 | 0.00 | 0.00 | 0.00 | 42 | 1013.8 |
| 20260504195932 | 25 | 228 | 17.7 | 17.7 | 0.00 | 0.00 | 0.00 | 42 | 1013.9 |
| 20260504195427 | 25 | 200 | 16.1 | 17.7 | 0.00 | 0.00 | 0.00 | 39 | 1014.0 |
| 20260504194924 | 25 | 224 | 8.0 | 12.9 | 0.00 | 0.00 | 0.00 | 43 | 1013.8 |
| 20260504194420 | 25 | 206 | 8.0 | 9.7 | 0.00 | 0.00 | 0.00 | 42 | 1013.8 |
| 20260504193916 | 25 | 213 | 12.9 | 14.5 | 0.00 | 0.00 | 0.00 | 41 | 1013.9 |
| 20260504193414 | 25 | 212 | 9.7 | 11.3 | 0.00 | 0.00 | 0.00 | 42 | 1014.1 |
| 20260504192913 | 25 | 184 | 4.8 | 6.4 | 0.00 | 0.00 | 0.00 | 43 | 1014.0 |
| 20260504192409 | 26 | 214 | 17.7 | 24.1 | 0.00 | 0.00 | 0.00 | 40 | 1014.4 |
| 20260504191908 | 26 | 220 | 6.4 | 6.4 | 0.00 | 0.00 | 0.00 | 41 | 1014.2 |
| 20260504191406 | 26 | 212 | 4.8 | 4.8 | 0.00 | 0.00 | 0.00 | 41 | 1014.3 |
| 20260504190901 | 25 | 218 | 11.3 | 16.1 | 0.00 | 0.00 | 0.00 | 42 | 1014.3 |
| 20260504190357 | 25 | 217 | 8.0 | 12.9 | 0.00 | 0.00 | 0.00 | 46 | 1014.2 |
| 20260504185854 | 25 | 209 | 6.4 | 6.4 | 0.00 | 0.00 | 0.00 | 45 | 1014.2 |
| 20260504185351 | 25 | 207 | 12.9 | 14.5 | 0.00 | 0.00 | 0.00 | 41 | 1014.4 |
| 20260504184847 | 25 | 249 | 14.5 | 24.1 | 0.00 | 0.00 | 0.00 | 44 | 1014.4 |
| 20260504184343 | 25 | 207 | 4.8 | 9.7 | 0.00 | 0.00 | 0.00 | 42 | 1014.3 |
| 20260504183839 | 25 | 219 | 14.5 | 16.1 | 0.00 | 0.00 | 0.00 | 42 | 1014.4 |
| 20260504183336 | 25 | 175 | 6.4 | 6.4 | 0.00 | 0.00 | 0.00 | 43 | 1014.6 |
| 20260504182834 | 25 | 201 | 8.0 | 11.3 | 0.00 | 0.00 | 0.00 | 43 | 1014.5 |
| 20260504182331 | 25 | 205 | 12.9 | 16.1 | 0.00 | 0.00 | 0.00 | 43 | 1014.7 |
| 20260504181828 | 25 | 193 | 6.4 | 6.4 | 0.00 | 0.00 | 0.00 | 43 | 1014.6 |
| 20260504181325 | 25 | 213 | 8.0 | 11.3 | 0.00 | 0.00 | 0.00 | 42 | 1014.7 |
| 20260504180824 | 25 | 217 | 9.7 | 11.3 | 0.00 | 0.00 | 0.00 | 45 | 1014.6 |
| 20260504180322 | 25 | 234 | 12.9 | 17.7 | 0.00 | 0.00 | 0.00 | 45 | 1014.9 |
| 20260504175820 | 24 | 277 | 4.8 | 6.4 | 0.00 | 0.00 | 0.00 | 46 | 1014.8 |
| 20260504175316 | 24 | 225 | 9.7 | 11.3 | 0.00 | 0.00 | 0.00 | 44 | 1015.1 |
| 20260504174815 | 24 | 185 | 8.0 | 9.7 | 0.00 | 0.00 | 0.00 | 45 | 1014.8 |
| 20260504174312 | 24 | 177 | 9.7 | 12.9 | 0.00 | 0.00 | 0.00 | 46 | 1015.0 |
| 20260504173808 | 23 | 223 | 12.9 | 16.1 | 0.00 | 0.00 | 0.00 | 46 | 1015.0 |
| 20260504173305 | 24 | 213 | 14.5 | 16.1 | 0.00 | 0.00 | 0.00 | 45 | 1015.1 |
| 20260504172802 | 23 | 211 | 9.7 | 12.9 | 0.00 | 0.00 | 0.00 | 46 | 1015.1 |
| 20260504172259 | 23 | 172 | 3.2 | 4.8 | 0.00 | 0.00 | 0.00 | 45 | 1015.2 |
| 20260504171754 | 23 | 207 | 6.4 | 6.4 | 0.00 | 0.00 | 0.00 | 44 | 1015.2 |
| 20260504171252 | 23 | 212 | 4.8 | 4.8 | 0.00 | 0.00 | 0.00 | 48 | 1015.2 |
| 20260504170749 | 23 | 206 | 14.5 | 20.9 | 0.00 | 0.00 | 0.00 | 45 | 1015.4 |
| 20260504170246 | 23 | 212 | 6.4 | 9.7 | 0.00 | 0.00 | 0.00 | 46 | 1015.5 |